Time,TemperatureF,DewpointF,PressureIn,WindDirection,WindDirectionDegrees,WindSpeedMPH,WindSpeedGustMPH,Humidity,HourlyPrecipIn,Conditions,Clouds,dailyrainin,SoftwareType,DateUTC
2013-02-14 00:04:00,35.1,26.3,29.45,NE,50,10.0,14.0,70,0.00,,,0.00,Wunderground v.1.15,2013-02-14 09:04:00,
2013-02-14 00:10:00,34.9,26.1,29.45,NNE,27,10.0,10.0,70,0.00,,,0.00,Wunderground v.1.15,2013-02-14 09:10:00,
2013-02-14 00:16:00,35.0,26.2,29.45,ENE,74,9.0,11.0,70,0.00,,,0.00,Wunderground v.1.15,2013-02-14 09:16:00,
2013-02-14 00:22:00,34.9,26.4,29.45,East,80,8.0,9.0,71,0.00,,,0.00,Wunderground v.1.15,2013-02-14 09:22:00,
2013-02-14 00:27:00,34.9,26.4,29.45,ENE,65,7.0,9.0,71,0.00,,,0.00,Wunderground v.1.15,2013-02-14 09:27:00,
2013-02-14 00:33:00,34.7,26.6,29.44,ENE,71,5.0,6.0,72,0.00,,,0.00,Wunderground v.1.15,2013-02-14 09:33:00,
2013-02-14 00:39:00,34.7,26.6,29.45,ENE,63,4.0,6.0,72,0.00,,,0.00,Wunderground v.1.15,2013-02-14 09:39:00,
2013-02-14 00:45:00,34.9,26.4,29.45,East,84,4.0,5.0,71,0.00,,,0.00,Wunderground v.1.15,2013-02-14 09:45:00,
2013-02-14 00:50:00,34.7,26.3,29.45,ENE,66,3.0,5.0,71,0.00,,,0.00,Wunderground v.1.15,2013-02-14 09:50:00,
2013-02-14 00:56:00,34.9,26.8,29.45,SE,125,3.0,6.0,72,0.00,,,0.00,Wunderground v.1.15,2013-02-14 09:56:00,
2013-02-14 01:02:00,34.7,26.6,29.45,ENE,60,3.0,5.0,72,0.00,,,0.00,Wunderground v.1.15,2013-02-14 10:02:00,
2013-02-14 01:08:00,34.7,26.9,29.45,East,79,3.0,5.0,73,0.00,,,0.00,Wunderground v.1.15,2013-02-14 10:08:00,
2013-02-14 01:14:00,34.7,26.9,29.45,NE,55,2.0,5.0,73,0.00,,,0.00,Wunderground v.1.15,2013-02-14 10:14:00,
2013-02-14 01:20:00,34.9,27.1,29.44,East,98,3.0,3.0,73,0.00,,,0.00,Wunderground v.1.15,2013-02-14 10:20:00,
2013-02-14 01:26:00,35.0,27.2,29.44,East,98,3.0,7.0,73,0.00,,,0.00,Wunderground v.1.15,2013-02-14 10:26:00,
2013-02-14 01:31:00,35.1,27.3,29.44,ENE,62,4.0,5.0,73,0.00,,,0.00,Wunderground v.1.15,2013-02-14 10:31:00,
2013-02-14 01:37:00,35.3,27.2,29.44,ESE,119,3.0,7.0,72,0.00,,,0.00,Wunderground v.1.15,2013-02-14 10:37:00,
2013-02-14 01:43:00,35.2,27.1,29.43,ENE,77,5.0,5.0,72,0.00,,,0.00,Wunderground v.1.15,2013-02-14 10:43:00,
2013-02-14 01:49:00,34.9,27.1,29.43,ENE,66,4.0,6.0,73,0.00,,,0.00,Wunderground v.1.15,2013-02-14 10:49:00,
2013-02-14 01:54:00,35.1,27.0,29.42,NE,36,4.0,6.0,72,0.00,,,0.00,Wunderground v.1.15,2013-02-14 10:54:00,
2013-02-14 02:00:00,34.9,27.1,29.42,NE,51,5.0,5.0,73,0.00,,,0.00,Wunderground v.1.15,2013-02-14 11:00:00,
2013-02-14 02:06:00,34.8,27.0,29.43,ENE,78,3.0,6.0,73,0.00,,,0.00,Wunderground v.1.15,2013-02-14 11:06:00,
2013-02-14 02:12:00,34.9,27.1,29.43,ENE,64,3.0,5.0,73,0.00,,,0.00,Wunderground v.1.15,2013-02-14 11:12:00,
2013-02-14 02:18:00,34.9,27.5,29.42,NNE,23,4.0,6.0,74,0.00,,,0.00,Wunderground v.1.15,2013-02-14 11:18:00,
2013-02-14 02:24:00,34.8,27.7,29.42,ESE,112,4.0,5.0,75,0.00,,,0.00,Wunderground v.1.15,2013-02-14 11:24:00,
2013-02-14 02:30:00,34.7,27.6,29.42,ENE,61,3.0,5.0,75,0.00,,,0.00,Wunderground v.1.15,2013-02-14 11:30:00,
2013-02-14 02:36:00,34.8,27.7,29.42,NE,55,3.0,5.0,75,0.00,,,0.00,Wunderground v.1.15,2013-02-14 11:36:00,
2013-02-14 02:41:00,34.8,27.7,29.42,NNE,20,3.0,8.0,75,0.00,,,0.00,Wunderground v.1.15,2013-02-14 11:41:00,
2013-02-14 02:47:00,34.5,27.7,29.42,East,94,3.0,8.0,76,0.00,,,0.00,Wunderground v.1.15,2013-02-14 11:47:00,
2013-02-14 02:53:00,34.2,28.1,29.42,NNE,33,2.0,5.0,78,0.00,,,0.00,Wunderground v.1.15,2013-02-14 11:53:00,
2013-02-14 02:59:00,34.0,27.9,29.42,NNE,23,3.0,6.0,78,0.00,,,0.00,Wunderground v.1.15,2013-02-14 11:59:00,
2013-02-14 03:05:00,34.5,27.7,29.41,ENE,72,3.0,5.0,76,0.00,,,0.00,Wunderground v.1.15,2013-02-14 12:05:00,
2013-02-14 03:11:00,34.9,27.8,29.42,East,89,3.0,4.0,75,0.00,,,0.00,Wunderground v.1.15,2013-02-14 12:11:00,
2013-02-14 03:17:00,35.2,27.7,29.41,SE,135,4.0,5.0,74,0.00,,,0.00,Wunderground v.1.15,2013-02-14 12:17:00,
2013-02-14 03:22:00,35.3,27.8,29.41,SE,125,3.0,5.0,74,0.00,,,0.00,Wunderground v.1.15,2013-02-14 12:22:00,
2013-02-14 03:28:00,35.2,27.7,29.41,East,84,2.0,5.0,74,0.00,,,0.00,Wunderground v.1.15,2013-02-14 12:28:00,
2013-02-14 03:34:00,35.8,27.3,29.40,ESE,122,3.0,6.0,71,0.00,,,0.00,Wunderground v.1.15,2013-02-14 12:34:00,
2013-02-14 03:40:00,35.4,27.6,29.40,SSW,204,3.0,3.0,73,0.00,,,0.00,Wunderground v.1.15,2013-02-14 12:40:00,
2013-02-14 03:45:00,35.2,27.4,29.40,NW,304,2.0,5.0,73,0.00,,,0.00,Wunderground v.1.15,2013-02-14 12:45:00,
2013-02-14 03:51:00,35.0,27.5,29.40,ENE,63,2.0,5.0,74,0.00,,,0.00,Wunderground v.1.15,2013-02-14 12:51:00,
2013-02-14 03:57:00,35.2,27.4,29.39,North,353,1.0,5.0,73,0.00,,,0.00,Wunderground v.1.15,2013-02-14 12:57:00,
2013-02-14 04:03:00,35.4,27.6,29.39,NE,55,2.0,5.0,73,0.00,,,0.00,Wunderground v.1.15,2013-02-14 13:03:00,
2013-02-14 04:09:00,35.5,27.4,29.38,NNE,25,1.0,5.0,72,0.00,,,0.00,Wunderground v.1.15,2013-02-14 13:09:00,
2013-02-14 04:15:00,35.3,27.8,29.38,NNE,15,2.0,5.0,74,0.00,,,0.00,Wunderground v.1.15,2013-02-14 13:15:00,
2013-02-14 04:21:00,35.7,27.6,29.38,ESE,105,2.0,7.0,72,0.00,,,0.00,Wunderground v.1.15,2013-02-14 13:21:00,
2013-02-14 04:26:00,36.1,27.9,29.37,NE,56,2.0,7.0,72,0.00,,,0.00,Wunderground v.1.15,2013-02-14 13:26:00,
2013-02-14 04:32:00,36.2,28.0,29.37,NE,39,1.0,5.0,72,0.00,,,0.00,Wunderground v.1.15,2013-02-14 13:32:00,
2013-02-14 04:38:00,35.9,28.1,29.36,NW,309,2.0,5.0,73,0.00,,,0.00,Wunderground v.1.15,2013-02-14 13:38:00,
2013-02-14 04:44:00,35.7,27.9,29.35,NNW,339,3.0,5.0,73,0.00,,,0.00,Wunderground v.1.15,2013-02-14 13:44:00,
2013-02-14 04:49:00,36.0,27.5,29.35,ESE,105,3.0,5.0,71,0.00,,,0.00,Wunderground v.1.15,2013-02-14 13:49:00,
2013-02-14 04:55:00,36.4,27.5,29.35,North,360,3.0,6.0,70,0.00,,,0.00,Wunderground v.1.15,2013-02-14 13:55:00,
2013-02-14 05:00:00,36.3,27.4,29.34,NW,308,3.0,4.0,70,0.00,,,0.00,Wunderground v.1.15,2013-02-14 14:00:00,
2013-02-14 05:06:00,36.1,27.6,29.34,North,349,4.0,6.0,71,0.00,,,0.00,Wunderground v.1.15,2013-02-14 14:06:00,
2013-02-14 05:11:00,35.9,27.7,29.34,North,7,4.0,4.0,72,0.00,,,0.00,Wunderground v.1.15,2013-02-14 14:11:00,
2013-02-14 05:17:00,35.9,28.1,29.33,NNW,345,3.0,4.0,73,0.00,,,0.00,Wunderground v.1.15,2013-02-14 14:17:00,
2013-02-14 05:23:00,35.7,28.2,29.33,NNW,347,3.0,3.0,74,0.00,,,0.00,Wunderground v.1.15,2013-02-14 14:23:00,
2013-02-14 05:29:00,35.6,28.1,29.33,NE,39,2.0,5.0,74,0.00,,,0.00,Wunderground v.1.15,2013-02-14 14:29:00,
2013-02-14 05:34:00,35.7,28.2,29.32,ENE,73,3.0,7.0,74,0.00,,,0.00,Wunderground v.1.15,2013-02-14 14:34:00,
2013-02-14 05:40:00,35.9,28.1,29.32,ENE,61,3.0,6.0,73,0.00,,,0.00,Wunderground v.1.15,2013-02-14 14:40:00,
2013-02-14 05:46:00,36.0,28.5,29.31,ENE,57,5.0,7.0,74,0.00,,,0.00,Wunderground v.1.15,2013-02-14 14:46:00,
2013-02-14 05:53:00,36.1,28.3,29.30,East,86,5.0,6.0,73,0.00,,,0.00,Wunderground v.1.15,2013-02-14 14:53:00,
2013-02-14 05:58:00,36.1,28.3,29.30,ENE,75,6.0,8.0,73,0.00,,,0.00,Wunderground v.1.15,2013-02-14 14:58:00,
2013-02-14 06:03:00,36.4,28.2,29.29,NE,43,6.0,9.0,72,0.00,,,0.00,Wunderground v.1.15,2013-02-14 15:03:00,
2013-02-14 06:09:00,36.5,28.3,29.28,East,80,8.0,12.0,72,0.00,,,0.00,Wunderground v.1.15,2013-02-14 15:09:00,
2013-02-14 06:15:00,36.3,28.1,29.27,ENE,73,9.0,9.0,72,0.00,,,0.00,Wunderground v.1.15,2013-02-14 15:15:00,
2013-02-14 06:21:00,36.4,27.9,29.27,East,89,6.0,9.0,71,0.00,,,0.00,Wunderground v.1.15,2013-02-14 15:21:00,
2013-02-14 06:26:00,36.9,27.3,29.27,East,79,7.0,20.0,68,0.00,,,0.00,Wunderground v.1.15,2013-02-14 15:26:00,
2013-02-14 06:32:00,37.1,27.5,29.26,East,91,9.0,10.0,68,0.00,,,0.00,Wunderground v.1.15,2013-02-14 15:32:00,
2013-02-14 06:38:00,36.9,27.7,29.26,ENE,74,8.0,17.0,69,0.00,,,0.00,Wunderground v.1.15,2013-02-14 15:38:00,
2013-02-14 06:44:00,36.6,28.1,29.26,NE,56,11.0,11.0,71,0.00,,,0.00,Wunderground v.1.15,2013-02-14 15:44:00,
2013-02-14 06:49:00,36.3,28.1,29.25,ENE,72,10.0,13.0,72,0.00,,,0.00,Wunderground v.1.15,2013-02-14 15:49:00,
2013-02-14 06:55:00,35.9,28.4,29.25,East,84,8.0,12.0,74,0.00,,,0.00,Wunderground v.1.15,2013-02-14 15:55:00,
2013-02-14 07:01:00,35.4,28.3,29.25,NE,51,4.0,9.0,75,0.00,,,0.00,Wunderground v.1.15,2013-02-14 16:01:00,
2013-02-14 07:07:00,35.2,28.4,29.25,East,100,2.0,9.0,76,0.00,,,0.00,Wunderground v.1.15,2013-02-14 16:07:00,
2013-02-14 07:13:00,34.9,28.4,29.24,NNE,18,3.0,9.0,77,0.00,,,0.00,Wunderground v.1.15,2013-02-14 16:13:00,
2013-02-14 07:19:00,34.7,28.5,29.24,North,1,3.0,9.0,78,0.00,,,0.00,Wunderground v.1.15,2013-02-14 16:19:00,
2013-02-14 07:25:00,34.6,28.4,29.24,NNW,345,4.0,9.0,78,0.00,,,0.00,Wunderground v.1.15,2013-02-14 16:25:00,
2013-02-14 07:30:00,34.4,28.2,29.24,North,1,5.0,5.0,78,0.00,,,0.00,Wunderground v.1.15,2013-02-14 16:30:00,
2013-02-14 07:36:00,34.4,28.6,29.23,North,356,5.0,9.0,79,0.00,,,0.00,Wunderground v.1.15,2013-02-14 16:36:00,
2013-02-14 07:42:00,34.1,28.6,29.22,North,356,4.0,9.0,80,0.00,,,0.00,Wunderground v.1.15,2013-02-14 16:42:00,
2013-02-14 07:48:00,33.8,28.6,29.21,North,356,5.0,9.0,81,0.00,,,0.00,Wunderground v.1.15,2013-02-14 16:48:00,
2013-02-14 07:53:00,33.5,28.6,29.21,NNW,343,5.0,9.0,82,0.00,,,0.00,Wunderground v.1.15,2013-02-14 16:53:00,
2013-02-14 07:59:00,33.4,28.8,29.20,NNW,345,5.0,9.0,83,0.00,,,0.00,Wunderground v.1.15,2013-02-14 16:59:00,
2013-02-14 08:05:00,33.4,28.5,29.18,NNW,335,5.0,9.0,82,0.00,,,0.00,Wunderground v.1.15,2013-02-14 17:05:00,
2013-02-14 08:11:00,33.3,28.1,29.17,NW,315,6.0,9.0,81,0.00,,,0.00,Wunderground v.1.15,2013-02-14 17:11:00,
2013-02-14 08:17:00,33.2,27.7,29.16,NNW,345,6.0,9.0,80,0.00,,,0.00,Wunderground v.1.15,2013-02-14 17:17:00,
2013-02-14 08:23:00,33.4,27.6,29.17,NNE,14,6.0,9.0,79,0.00,,,0.00,Wunderground v.1.15,2013-02-14 17:23:00,
2013-02-14 08:29:00,33.5,28.0,29.16,NNE,25,6.0,9.0,80,0.00,,,0.00,Wunderground v.1.15,2013-02-14 17:29:00,
2013-02-14 08:34:00,33.3,28.4,29.16,East,91,5.0,9.0,82,0.00,,,0.00,Wunderground v.1.15,2013-02-14 17:34:00,
2013-02-14 08:40:00,33.0,28.7,29.15,NNE,27,3.0,9.0,84,0.00,,,0.00,Wunderground v.1.15,2013-02-14 17:40:00,
2013-02-14 08:46:00,32.7,29.0,29.15,East,80,4.0,9.0,86,0.00,,,0.00,Wunderground v.1.15,2013-02-14 17:46:00,
2013-02-14 08:52:00,32.5,29.3,29.14,NE,37,5.0,11.0,88,0.00,,,0.00,Wunderground v.1.15,2013-02-14 17:52:00,
2013-02-14 08:57:00,32.5,29.6,29.14,ESE,108,8.0,15.0,89,0.00,,,0.00,Wunderground v.1.15,2013-02-14 17:57:00,
2013-02-14 09:03:00,32.4,29.8,29.13,SSE,162,8.0,9.0,90,0.00,,,0.00,Wunderground v.1.15,2013-02-14 18:03:00,
2013-02-14 09:09:00,32.4,29.8,29.13,SSE,160,6.0,10.0,90,0.00,,,0.00,Wunderground v.1.15,2013-02-14 18:09:00,
2013-02-14 09:15:00,32.5,29.9,29.12,South,174,6.0,11.0,90,0.00,,,0.00,Wunderground v.1.15,2013-02-14 18:15:00,
2013-02-14 09:21:00,32.7,29.8,29.12,SSE,160,7.0,13.0,89,0.00,,,0.00,Wunderground v.1.15,2013-02-14 18:21:00,
2013-02-14 09:26:00,32.7,29.8,29.11,South,177,7.0,13.0,89,0.00,,,0.00,Wunderground v.1.15,2013-02-14 18:26:00,
2013-02-14 09:32:00,32.7,29.5,29.11,SSE,167,7.0,11.0,88,0.00,,,0.00,Wunderground v.1.15,2013-02-14 18:32:00,
2013-02-14 09:38:00,32.7,29.8,29.10,SSE,155,6.0,11.0,89,0.00,,,0.00,Wunderground v.1.15,2013-02-14 18:38:00,
2013-02-14 09:44:00,32.5,29.6,29.10,WSW,248,5.0,9.0,89,0.00,,,0.00,Wunderground v.1.15,2013-02-14 18:44:00,
2013-02-14 09:49:00,32.4,29.8,29.09,South,176,6.0,12.0,90,0.00,,,0.00,Wunderground v.1.15,2013-02-14 18:49:00,
2013-02-14 09:55:00,32.1,29.5,29.09,SE,133,9.0,11.0,90,0.00,,,0.00,Wunderground v.1.15,2013-02-14 18:55:00,
2013-02-14 10:01:00,31.9,29.3,29.08,SE,141,10.0,10.0,90,0.00,,,0.00,Wunderground v.1.15,2013-02-14 19:01:00,
2013-02-14 10:06:00,31.6,29.0,29.08,SE,127,10.0,13.0,90,0.00,,,0.00,Wunderground v.1.15,2013-02-14 19:06:00,
2013-02-14 10:12:00,31.2,28.3,29.07,ESE,120,12.0,17.0,89,0.00,,,0.00,Wunderground v.1.15,2013-02-14 19:12:00,
2013-02-14 10:18:00,31.0,28.1,29.07,ESE,112,14.0,17.0,89,0.00,,,0.00,Wunderground v.1.15,2013-02-14 19:18:00,
2013-02-14 10:24:00,31.1,28.2,29.06,East,101,15.0,21.0,89,0.00,,,0.00,Wunderground v.1.15,2013-02-14 19:24:00,
2013-02-14 10:29:00,31.3,28.2,29.06,East,96,15.0,21.0,88,0.00,,,0.00,Wunderground v.1.15,2013-02-14 19:29:00,
2013-02-14 10:35:00,31.4,28.3,29.06,SE,134,15.0,21.0,88,0.00,,,0.00,Wunderground v.1.15,2013-02-14 19:35:00,
2013-02-14 10:41:00,31.3,28.2,29.06,SE,134,16.0,19.0,88,0.00,,,0.00,Wunderground v.1.15,2013-02-14 19:41:00,
2013-02-14 10:47:00,31.2,28.1,29.06,SE,136,15.0,19.0,88,0.00,,,0.00,Wunderground v.1.15,2013-02-14 19:47:00,
2013-02-14 10:52:00,31.2,27.8,29.06,SE,127,16.0,18.0,87,0.00,,,0.00,Wunderground v.1.15,2013-02-14 19:52:00,
2013-02-14 10:58:00,31.0,27.6,29.05,East,95,16.0,20.0,87,0.00,,,0.00,Wunderground v.1.15,2013-02-14 19:58:00,
2013-02-14 11:04:00,30.8,27.4,29.05,SE,129,17.0,22.0,87,0.00,,,0.00,Wunderground v.1.15,2013-02-14 20:04:00,
2013-02-14 11:10:00,30.4,27.0,29.05,SE,124,17.0,17.0,87,0.00,,,0.00,Wunderground v.1.15,2013-02-14 20:10:00,
2013-02-14 11:16:00,29.9,26.8,29.05,East,94,17.0,19.0,88,0.00,,,0.00,Wunderground v.1.15,2013-02-14 20:16:00,
2013-02-14 11:22:00,29.4,26.0,29.05,ESE,110,18.0,21.0,87,0.00,,,0.00,Wunderground v.1.15,2013-02-14 20:22:00,
2013-02-14 11:28:00,29.1,25.7,29.05,SE,132,19.0,21.0,87,0.00,,,0.00,Wunderground v.1.15,2013-02-14 20:28:00,
2013-02-14 11:33:00,29.0,25.6,29.04,ESE,111,17.0,24.0,87,0.00,,,0.00,Wunderground v.1.15,2013-02-14 20:33:00,
2013-02-14 11:39:00,28.8,25.1,29.05,SE,141,17.0,24.0,86,0.00,,,0.00,Wunderground v.1.15,2013-02-14 20:39:00,
2013-02-14 11:45:00,28.8,25.1,29.05,ESE,113,18.0,25.0,86,0.00,,,0.00,Wunderground v.1.15,2013-02-14 20:45:00,
2013-02-14 11:51:00,28.7,25.0,29.05,South,170,17.0,24.0,86,0.00,,,0.00,Wunderground v.1.15,2013-02-14 20:51:00,
2013-02-14 11:56:00,28.7,24.8,29.05,ESE,121,17.0,24.0,85,0.00,,,0.00,Wunderground v.1.15,2013-02-14 20:56:00,
2013-02-14 12:02:00,28.6,24.7,29.05,East,91,17.0,20.0,85,0.00,,,0.00,Wunderground v.1.15,2013-02-14 21:02:00,
2013-02-14 12:08:00,28.7,25.0,29.05,SE,134,17.0,20.0,86,0.00,,,0.00,Wunderground v.1.15,2013-02-14 21:08:00,
2013-02-14 12:14:00,28.7,24.5,29.05,ESE,113,16.0,20.0,84,0.00,,,0.00,Wunderground v.1.15,2013-02-14 21:14:00,
2013-02-14 12:20:00,28.6,24.4,29.05,ESE,122,15.0,18.0,84,0.00,,,0.00,Wunderground v.1.15,2013-02-14 21:20:00,
2013-02-14 12:26:00,28.5,24.0,29.06,SE,127,15.0,18.0,83,0.00,,,0.00,Wunderground v.1.15,2013-02-14 21:26:00,
2013-02-14 12:32:00,28.4,23.9,29.06,ESE,121,15.0,16.0,83,0.00,,,0.00,Wunderground v.1.15,2013-02-14 21:32:00,
2013-02-14 12:37:00,28.4,23.9,29.07,SE,129,14.0,16.0,83,0.00,,,0.00,Wunderground v.1.15,2013-02-14 21:37:00,
2013-02-14 12:43:00,28.3,23.8,29.07,SE,128,11.0,18.0,83,0.00,,,0.00,Wunderground v.1.15,2013-02-14 21:43:00,
2013-02-14 12:49:00,28.4,24.2,29.07,ESE,117,10.0,18.0,84,0.00,,,0.00,Wunderground v.1.15,2013-02-14 21:49:00,
2013-02-14 12:55:00,28.4,24.2,29.07,SSE,159,9.0,15.0,84,0.00,,,0.00,Wunderground v.1.15,2013-02-14 21:55:00,
2013-02-14 13:00:00,28.8,24.3,29.08,SE,145,10.0,16.0,83,0.00,,,0.00,Wunderground v.1.15,2013-02-14 22:00:00,
2013-02-14 13:06:00,29.0,24.2,29.08,SE,145,10.0,16.0,82,0.00,,,0.00,Wunderground v.1.15,2013-02-14 22:06:00,
2013-02-14 13:12:00,29.3,24.5,29.08,SE,141,9.0,12.0,82,0.00,,,0.00,Wunderground v.1.15,2013-02-14 22:12:00,
2013-02-14 13:18:00,29.4,24.6,29.08,SE,141,6.0,12.0,82,0.00,,,0.00,Wunderground v.1.15,2013-02-14 22:18:00,
2013-02-14 13:24:00,29.5,24.7,29.09,SE,146,5.0,9.0,82,0.00,,,0.00,Wunderground v.1.15,2013-02-14 22:24:00,
2013-02-14 13:30:00,29.4,24.3,29.10,SE,139,5.0,11.0,81,0.00,,,0.00,Wunderground v.1.15,2013-02-14 22:30:00,
2013-02-14 13:36:00,29.2,24.1,29.10,SE,141,5.0,11.0,81,0.00,,,0.00,Wunderground v.1.15,2013-02-14 22:36:00,
2013-02-14 13:41:00,29.0,23.9,29.10,SE,131,4.0,9.0,81,0.00,,,0.00,Wunderground v.1.15,2013-02-14 22:41:00,
2013-02-14 13:47:00,28.6,23.5,29.10,SE,134,6.0,13.0,81,0.00,,,0.00,Wunderground v.1.15,2013-02-14 22:47:00,
2013-02-14 13:53:00,28.4,23.3,29.11,SSE,155,8.0,9.0,81,0.00,,,0.00,Wunderground v.1.15,2013-02-14 22:53:00,
2013-02-14 13:59:00,28.3,23.2,29.11,SSE,150,8.0,12.0,81,0.00,,,0.00,Wunderground v.1.15,2013-02-14 22:59:00,
2013-02-14 14:04:00,28.2,23.4,29.11,SE,143,8.0,12.0,82,0.00,,,0.00,Wunderground v.1.15,2013-02-14 23:04:00,
2013-02-14 14:10:00,27.9,23.1,29.11,South,184,6.0,6.0,82,0.00,,,0.00,Wunderground v.1.15,2013-02-14 23:10:00,
2013-02-14 14:16:00,27.7,23.2,29.12,SSE,149,6.0,9.0,83,0.00,,,0.00,Wunderground v.1.15,2013-02-14 23:16:00,
2013-02-14 14:22:00,27.7,23.2,29.12,South,172,6.0,9.0,83,0.00,,,0.00,Wunderground v.1.15,2013-02-14 23:22:00,
2013-02-14 14:28:00,27.5,23.3,29.12,SE,128,6.0,9.0,84,0.00,,,0.00,Wunderground v.1.15,2013-02-14 23:28:00,
2013-02-14 14:34:00,27.5,23.3,29.13,SSE,150,6.0,9.0,84,0.00,,,0.00,Wunderground v.1.15,2013-02-14 23:34:00,
2013-02-14 14:40:00,27.5,23.6,29.13,South,181,5.0,5.0,85,0.00,,,0.00,Wunderground v.1.15,2013-02-14 23:40:00,
2013-02-14 14:45:00,27.5,23.6,29.13,ESE,109,4.0,9.0,85,0.00,,,0.00,Wunderground v.1.15,2013-02-14 23:45:00,
2013-02-14 14:51:00,27.3,23.9,29.14,SSE,152,4.0,9.0,87,0.00,,,0.00,Wunderground v.1.15,2013-02-14 23:51:00,
2013-02-14 14:57:00,27.2,23.8,29.14,SSE,153,3.0,9.0,87,0.00,,,0.00,Wunderground v.1.15,2013-02-14 23:57:00,
2013-02-14 15:03:00,27.2,24.1,29.14,SE,146,3.0,9.0,88,0.00,,,0.00,Wunderground v.1.15,2013-02-15 00:03:00,
2013-02-14 15:09:00,27.3,24.5,29.14,NNW,339,1.0,9.0,89,0.00,,,0.00,Wunderground v.1.15,2013-02-15 00:09:00,
2013-02-14 15:15:00,27.5,25.0,29.14,NNE,18,1.0,9.0,90,0.00,,,0.00,Wunderground v.1.15,2013-02-15 00:15:00,
2013-02-14 15:21:00,27.5,25.2,29.14,NNW,347,1.0,9.0,91,0.00,,,0.00,Wunderground v.1.15,2013-02-15 00:21:00,
2013-02-14 15:27:00,27.5,25.5,29.15,NW,323,2.0,9.0,92,0.00,,,0.00,Wunderground v.1.15,2013-02-15 00:27:00,
2013-02-14 15:32:00,27.5,25.5,29.15,NW,316,2.0,9.0,92,0.00,,,0.00,Wunderground v.1.15,2013-02-15 00:32:00,
2013-02-14 15:38:00,27.6,25.6,29.15,NNW,345,2.0,9.0,92,0.00,,,0.00,Wunderground v.1.15,2013-02-15 00:38:00,
2013-02-14 15:44:00,27.6,25.6,29.15,WNW,303,2.0,9.0,92,0.00,,,0.00,Wunderground v.1.15,2013-02-15 00:44:00,
2013-02-14 15:50:00,27.7,25.7,29.15,NW,319,2.0,9.0,92,0.00,,,0.00,Wunderground v.1.15,2013-02-15 00:50:00,
2013-02-14 15:55:00,27.6,25.6,29.16,NW,316,2.0,9.0,92,0.00,,,0.00,Wunderground v.1.15,2013-02-15 00:55:00,
2013-02-14 16:01:00,27.4,25.4,29.17,North,349,2.0,9.0,92,0.00,,,0.00,Wunderground v.1.15,2013-02-15 01:01:00,
2013-02-14 16:07:00,27.5,25.7,29.17,North,355,1.0,9.0,93,0.00,,,0.00,Wunderground v.1.15,2013-02-15 01:07:00,
2013-02-14 16:13:00,27.4,25.4,29.17,North,355,1.0,9.0,92,0.00,,,0.00,Wunderground v.1.15,2013-02-15 01:13:00,
2013-02-14 16:19:00,27.3,25.3,29.17,NNE,19,0.0,9.0,92,0.00,,,0.00,Wunderground v.1.15,2013-02-15 01:19:00,
2013-02-14 16:25:00,27.2,25.4,29.17,NNE,19,0.0,9.0,93,0.00,,,0.00,Wunderground v.1.15,2013-02-15 01:25:00,
2013-02-14 16:31:00,26.9,25.1,29.18,NNE,30,1.0,9.0,93,0.00,,,0.00,Wunderground v.1.15,2013-02-15 01:31:00,
2013-02-14 16:37:00,26.6,24.8,29.19,ENE,61,3.0,9.0,93,0.00,,,0.00,Wunderground v.1.15,2013-02-15 01:37:00,
2013-02-14 16:42:00,26.5,25.0,29.19,NE,56,6.0,9.0,94,0.00,,,0.00,Wunderground v.1.15,2013-02-15 01:42:00,
2013-02-14 16:48:00,26.6,25.1,29.19,ENE,58,6.0,9.0,94,0.00,,,0.00,Wunderground v.1.15,2013-02-15 01:48:00,
2013-02-14 16:54:00,26.9,25.1,29.19,NE,44,6.0,9.0,93,0.00,,,0.00,Wunderground v.1.15,2013-02-15 01:54:00,
2013-02-14 17:00:00,27.1,24.8,29.20,NE,51,6.0,9.0,91,0.00,,,0.00,Wunderground v.1.15,2013-02-15 02:00:00,
2013-02-14 17:06:00,27.2,24.4,29.21,ENE,78,5.0,9.0,89,0.00,,,0.00,Wunderground v.1.15,2013-02-15 02:06:00,
2013-02-14 17:12:00,27.3,24.5,29.21,NE,44,5.0,9.0,89,0.00,,,0.00,Wunderground v.1.15,2013-02-15 02:12:00,
2013-02-14 17:18:00,27.4,24.3,29.22,NE,49,5.0,9.0,88,0.00,,,0.00,Wunderground v.1.15,2013-02-15 02:18:00,
2013-02-14 17:23:00,27.3,23.9,29.23,ENE,75,5.0,9.0,87,0.00,,,0.00,Wunderground v.1.15,2013-02-15 02:23:00,
2013-02-14 17:29:00,26.9,23.5,29.23,ESE,105,5.0,9.0,87,0.00,,,0.00,Wunderground v.1.15,2013-02-15 02:29:00,
2013-02-14 17:35:00,26.7,23.6,29.24,ENE,67,4.0,9.0,88,0.00,,,0.00,Wunderground v.1.15,2013-02-15 02:35:00,
2013-02-14 17:41:00,26.6,23.5,29.24,ENE,75,3.0,9.0,88,0.00,,,0.00,Wunderground v.1.15,2013-02-15 02:41:00,
2013-02-14 17:46:00,26.6,23.8,29.25,North,354,1.0,9.0,89,0.00,,,0.00,Wunderground v.1.15,2013-02-15 02:46:00,
2013-02-14 17:52:00,26.7,24.2,29.25,NNW,336,1.0,9.0,90,0.00,,,0.00,Wunderground v.1.15,2013-02-15 02:52:00,
2013-02-14 17:58:00,26.7,24.4,29.26,North,349,1.0,9.0,91,0.00,,,0.00,Wunderground v.1.15,2013-02-15 02:58:00,
2013-02-14 18:04:00,26.6,24.6,29.26,NNE,28,1.0,9.0,92,0.00,,,0.00,Wunderground v.1.15,2013-02-15 03:04:00,
2013-02-14 18:09:00,26.6,24.3,29.27,NNE,21,1.0,9.0,91,0.00,,,0.00,Wunderground v.1.15,2013-02-15 03:09:00,
2013-02-14 18:15:00,26.6,24.1,29.27,NNE,21,0.0,9.0,90,0.00,,,0.00,Wunderground v.1.15,2013-02-15 03:15:00,
2013-02-14 18:21:00,26.5,24.0,29.27,NNE,22,0.0,9.0,90,0.00,,,0.00,Wunderground v.1.15,2013-02-15 03:21:00,
2013-02-14 18:27:00,26.5,24.0,29.27,NNE,21,0.0,9.0,90,0.00,,,0.00,Wunderground v.1.15,2013-02-15 03:27:00,
2013-02-14 18:32:00,26.5,24.2,29.28,NNE,21,0.0,9.0,91,0.00,,,0.00,Wunderground v.1.15,2013-02-15 03:32:00,
2013-02-14 18:38:00,26.4,24.1,29.28,NNE,21,0.0,9.0,91,0.00,,,0.00,Wunderground v.1.15,2013-02-15 03:38:00,
2013-02-14 18:44:00,26.3,24.0,29.28,NNE,22,0.0,9.0,91,0.00,,,0.00,Wunderground v.1.15,2013-02-15 03:44:00,
2013-02-14 18:50:00,26.3,24.0,29.29,NNE,22,0.0,9.0,91,0.00,,,0.00,Wunderground v.1.15,2013-02-15 03:50:00,
2013-02-14 18:55:00,26.2,24.2,29.29,NNE,22,0.0,9.0,92,0.00,,,0.00,Wunderground v.1.15,2013-02-15 03:55:00,
2013-02-14 19:01:00,26.1,24.1,29.30,NNE,23,1.0,9.0,92,0.00,,,0.00,Wunderground v.1.15,2013-02-15 04:01:00,
2013-02-14 19:07:00,26.0,24.3,29.30,NNE,23,1.0,9.0,93,0.00,,,0.00,Wunderground v.1.15,2013-02-15 04:07:00,
2013-02-14 19:12:00,26.0,24.3,29.30,NNE,30,1.0,9.0,93,0.00,,,0.00,Wunderground v.1.15,2013-02-15 04:12:00,
2013-02-14 19:18:00,26.0,24.3,29.31,NE,44,1.0,9.0,93,0.00,,,0.00,Wunderground v.1.15,2013-02-15 04:18:00,
2013-02-14 19:24:00,25.9,24.2,29.31,NE,46,2.0,9.0,93,0.00,,,0.00,Wunderground v.1.15,2013-02-15 04:24:00,
2013-02-14 19:30:00,25.9,24.4,29.32,NE,44,2.0,9.0,94,0.00,,,0.00,Wunderground v.1.15,2013-02-15 04:30:00,
2013-02-14 19:35:00,25.9,24.4,29.32,NE,34,2.0,9.0,94,0.00,,,0.00,Wunderground v.1.15,2013-02-15 04:35:00,
2013-02-14 19:41:00,25.9,24.4,29.32,NE,37,2.0,9.0,94,0.00,,,0.00,Wunderground v.1.15,2013-02-15 04:41:00,
2013-02-14 19:47:00,25.9,24.4,29.33,NNE,32,2.0,9.0,94,0.00,,,0.00,Wunderground v.1.15,2013-02-15 04:47:00,
2013-02-14 19:53:00,26.0,24.5,29.33,NE,43,2.0,9.0,94,0.00,,,0.00,Wunderground v.1.15,2013-02-15 04:53:00,
2013-02-14 19:58:00,26.1,24.6,29.34,NE,41,2.0,9.0,94,0.00,,,0.00,Wunderground v.1.15,2013-02-15 04:58:00,
2013-02-14 20:00:00,26.1,24.6,29.34,NE,40,2.0,2.0,94,0.00,,,0.00,Wunderground v.1.15,2013-02-15 05:00:00,
2013-02-14 20:02:00,26.2,24.7,29.34,NNE,12,2.0,9.0,94,0.00,,,0.00,Wunderground v.1.15,2013-02-15 05:02:00,
2013-02-14 20:08:00,26.2,24.7,29.34,NE,41,2.0,9.0,94,0.00,,,0.00,Wunderground v.1.15,2013-02-15 05:08:00,
2013-02-14 20:12:00,26.3,24.8,29.34,NE,34,2.0,9.0,94,0.00,,,0.00,Wunderground v.1.15,2013-02-15 05:12:00,
2013-02-14 20:17:00,26.3,25.1,29.35,NNE,15,2.0,9.0,95,0.00,,,0.00,Wunderground v.1.15,2013-02-15 05:17:00,
2013-02-14 20:23:00,26.4,24.9,29.35,NNE,26,2.0,9.0,94,0.00,,,0.00,Wunderground v.1.15,2013-02-15 05:23:00,
2013-02-14 20:29:00,26.4,24.9,29.35,NE,41,2.0,9.0,94,0.00,,,0.00,Wunderground v.1.15,2013-02-15 05:29:00,
2013-02-14 20:34:00,26.4,24.9,29.35,NE,39,3.0,9.0,94,0.00,,,0.00,Wunderground v.1.15,2013-02-15 05:34:00,
2013-02-14 20:39:00,26.4,24.9,29.35,NNE,18,4.0,9.0,94,0.00,,,0.00,Wunderground v.1.15,2013-02-15 05:39:00,
2013-02-14 20:45:00,26.4,24.7,29.36,NNE,26,3.0,9.0,93,0.00,,,0.00,Wunderground v.1.15,2013-02-15 05:45:00,
2013-02-14 20:51:00,26.4,24.7,29.36,North,3,3.0,9.0,93,0.00,,,0.00,Wunderground v.1.15,2013-02-15 05:51:00,
2013-02-14 20:57:00,26.6,24.8,29.36,NNE,29,4.0,9.0,93,0.00,,,0.00,Wunderground v.1.15,2013-02-15 05:57:00,
2013-02-14 21:03:00,26.7,25.2,29.36,NNE,15,4.0,9.0,94,0.00,,,0.00,Wunderground v.1.15,2013-02-15 06:03:00,
2013-02-14 21:09:00,26.7,25.2,29.37,NNE,25,3.0,9.0,94,0.00,,,0.00,Wunderground v.1.15,2013-02-15 06:09:00,
2013-02-14 21:15:00,26.7,25.2,29.37,NNE,32,2.0,9.0,94,0.00,,,0.00,Wunderground v.1.15,2013-02-15 06:15:00,
2013-02-14 21:21:00,26.7,25.2,29.37,NNE,19,1.0,9.0,94,0.00,,,0.00,Wunderground v.1.15,2013-02-15 06:21:00,
2013-02-14 21:26:00,26.7,25.2,29.38,NNE,29,1.0,9.0,94,0.00,,,0.00,Wunderground v.1.15,2013-02-15 06:26:00,
2013-02-14 21:32:00,26.7,25.2,29.38,NNE,13,2.0,9.0,94,0.00,,,0.00,Wunderground v.1.15,2013-02-15 06:32:00,
2013-02-14 21:38:00,26.8,25.3,29.38,NNE,30,2.0,9.0,94,0.00,,,0.00,Wunderground v.1.15,2013-02-15 06:38:00,
2013-02-14 21:44:00,26.9,25.4,29.39,NNE,18,2.0,9.0,94,0.00,,,0.00,Wunderground v.1.15,2013-02-15 06:44:00,
2013-02-14 21:49:00,27.0,25.5,29.39,NNE,29,2.0,9.0,94,0.00,,,0.00,Wunderground v.1.15,2013-02-15 06:49:00,
2013-02-14 21:55:00,27.1,25.6,29.39,NNE,30,2.0,9.0,94,0.00,,,0.00,Wunderground v.1.15,2013-02-15 06:55:00,
2013-02-14 22:01:00,27.2,25.7,29.39,NNE,20,2.0,9.0,94,0.00,,,0.00,Wunderground v.1.15,2013-02-15 07:01:00,
2013-02-14 22:07:00,27.3,25.5,29.40,NNE,27,1.0,9.0,93,0.00,,,0.00,Wunderground v.1.15,2013-02-15 07:07:00,
2013-02-14 22:13:00,27.2,25.4,29.40,NE,36,2.0,9.0,93,0.00,,,0.00,Wunderground v.1.15,2013-02-15 07:13:00,
2013-02-14 22:19:00,27.1,25.3,29.40,NNE,32,3.0,9.0,93,0.00,,,0.00,Wunderground v.1.15,2013-02-15 07:19:00,
2013-02-14 22:25:00,27.1,25.6,29.40,NNE,32,3.0,9.0,94,0.00,,,0.00,Wunderground v.1.15,2013-02-15 07:25:00,
2013-02-14 22:30:00,27.2,25.7,29.40,NNE,30,1.0,9.0,94,0.00,,,0.00,Wunderground v.1.15,2013-02-15 07:30:00,
2013-02-14 22:36:00,27.2,25.4,29.41,NE,39,1.0,9.0,93,0.00,,,0.00,Wunderground v.1.15,2013-02-15 07:36:00,
2013-02-14 22:42:00,27.2,25.4,29.41,NNE,30,2.0,9.0,93,0.00,,,0.00,Wunderground v.1.15,2013-02-15 07:42:00,
2013-02-14 22:48:00,27.3,25.5,29.41,NNE,12,2.0,9.0,93,0.00,,,0.00,Wunderground v.1.15,2013-02-15 07:48:00,
2013-02-14 22:53:00,27.5,25.7,29.41,NNE,32,2.0,9.0,93,0.00,,,0.00,Wunderground v.1.15,2013-02-15 07:53:00,
2013-02-14 22:59:00,27.5,26.0,29.41,NNE,19,2.0,9.0,94,0.00,,,0.00,Wunderground v.1.15,2013-02-15 07:59:00,
2013-02-14 23:05:00,27.7,26.2,29.41,North,349,2.0,9.0,94,0.00,,,0.00,Wunderground v.1.15,2013-02-15 08:05:00,
2013-02-14 23:11:00,27.7,26.5,29.42,NNW,329,2.0,9.0,95,0.00,,,0.00,Wunderground v.1.15,2013-02-15 08:11:00,
2013-02-14 23:17:00,27.7,26.5,29.42,NNW,331,2.0,9.0,95,0.00,,,0.00,Wunderground v.1.15,2013-02-15 08:17:00,
2013-02-14 23:23:00,27.8,26.6,29.42,NW,320,2.0,9.0,95,0.00,,,0.00,Wunderground v.1.15,2013-02-15 08:23:00,
2013-02-14 23:29:00,27.9,26.7,29.42,NNE,13,2.0,9.0,95,0.00,,,0.00,Wunderground v.1.15,2013-02-15 08:29:00,
2013-02-14 23:35:00,28.0,27.0,29.42,NE,36,2.0,9.0,96,0.00,,,0.00,Wunderground v.1.15,2013-02-15 08:35:00,
2013-02-14 23:40:00,27.7,26.5,29.42,East,90,5.0,9.0,95,0.00,,,0.00,Wunderground v.1.15,2013-02-15 08:40:00,
2013-02-14 23:46:00,27.6,26.4,29.43,East,91,5.0,9.0,95,0.00,,,0.00,Wunderground v.1.15,2013-02-15 08:46:00,
2013-02-14 23:52:00,27.4,26.2,29.43,ENE,61,4.0,9.0,95,0.00,,,0.00,Wunderground v.1.15,2013-02-15 08:52:00,
2013-02-14 23:58:00,27.3,26.1,29.43,ENE,75,4.0,9.0,95,0.00,,,0.00,Wunderground v.1.15,2013-02-15 08:58:00,